Location: Engelmannsreuth
(49.8125°N, 11.6497°E)
Time: 06:33:07
(UTC+00:00)

Cosmos 2173 Rocket - Pass Details

Date: 17 February 2020
Orbit: 944 x 1002 km, 83.0° (Epoch: 09 April)

Event Time Altitude Azimuth Distance (km) Brightness Sun altitude
Rises 04:39:48 0° 350° (N) 3,725 7.0 -16.9°
Reaches altitude 10° 04:42:21 10° 350° (N) 2,765 6.3 -16.5°
Maximum altitude 04:48:42 86° 263° (W) 991 4.0 -15.5°
Drops below altitude 10° 04:54:56 10° 175° (S) 2,707 6.4 -14.5°
Sets 04:57:24 0° 175° (S) 3,642 7.1 -14.1°
